[[{"header":{"parameterUnit":"m.s-1","parameterCategory":1,"la1":30.2991,"la2":30.254,"lo1":-89.0895,"lo2":-89.0444,"dy":0.0017,"dx":0.0017,"nx":28,"ny":28,"refTime":"2024-02-07T03:00:00:Z","depth":0,"parameterNumber":2,"parameterNumberName":"U-component_of_WINDS"},"data":[0,0,0,0,0,0,0,0,0,0,0,0,0,0,0,0,0,0,0,0,0,0,0,0,0,0,0,0,0,0,0,0,0,0,0,0,0,0,0,0,0,0,0,0,0,0,0,0,0,0,0,0,0,0,0,0,0,0,-2.5197,-2.5198,0,-2.5233,-2.5233,-2.5234,-2.5215,-2.5214,-2.5213,-2.5213,-2.5252,-2.5254,-2.5256,0,0,0,0,0,0,0,0,0,0,0,0,0,-2.5119,-2.512,-2.5197,-2.5198,-2.5198,-2.5233,-2.5233,-2.5234,-2.5216,-2.5214,-2.5213,-2.5212,-2.5251,-2.5254,-2.5256,0,0,0,0,0,0,0,0,0,0,0,0,0,-2.5153,-2.5121,-2.5197,-2.5193,-2.5193,-2.5233,-2.5233,-2.5234,-2.5216,-2.5214,-2.5213,-2.5212,-2.5251,-2.5254,-2.5256,-2.5303,0,0,-2.5265,-2.5267,0,0,0,0,0,0,0,0,-2.5151,-2.5156,-2.5193,-2.5194,-2.5194,-2.5218,-2.522,-2.5257,-2.5216,-2.5207,-2.5213,-2.5211,-2.5242,-2.5246,-2.5256,-2.5305,-2.5306,-2.5266,-2.5267,-2.5269,-2.5269,0,0,0,0,0,0,0,-2.5149,-2.5155,-2.5211,-2.5194,-2.5194,-2.5191,-2.5195,-2.5227,-2.5232,-2.5208,-2.5207,-2.5211,-2.5242,-2.5253,-2.5256,-2.5307,-2.5265,-2.5268,-2.527,-2.5271,-2.5397,-2.5399,0,0,0,0,0,0,-2.5146,-2.5153,-2.521,-2.5212,-2.5168,-2.5194,-2.5197,-2.5212,-2.5232,-2.5234,-2.5212,-2.521,-2.5249,-2.5253,-2.5258,-2.5314,-2.5269,-2.5271,-2.5273,-2.5396,-2.5398,-2.5399,0,0,0,0,0,0,-2.5145,-2.5151,-2.5209,-2.5182,-2.5189,-2.5197,-2.5213,-2.5213,-2.5224,-2.5235,-2.5236,-2.5222,-2.5248,-2.5254,-2.5292,-2.5315,-2.5273,-2.5275,-2.5394,-2.5396,-2.5398,-2.5426,0,0,0,0,0,0,-2.5142,-2.5151,-2.5167,-2.5183,-2.5191,-2.5241,-2.5214,-2.5215,-2.5229,-2.5226,-2.5244,-2.5246,-2.5247,-2.5287,-2.5295,-2.5318,-2.5277,-2.5392,-2.5395,-2.5398,-2.5423,-2.5429,-2.5434,0,0,0,0,0,-2.514,-2.5174,-2.5168,-2.5175,-2.5211,-2.5242,-2.5247,-2.5246,-2.523,-2.5248,-2.5255,-2.5246,-2.5311,-2.5292,-2.5299,-2.5324,-2.539,-2.5394,-2.5397,-2.542,-2.5427,-2.5434,0,0,0,0,0,0,-2.5162,-2.5176,-2.517,-2.521,-2.5225,-2.5239,-2.5261,-2.5254,-2.5274,-2.5271,-2.5271,-2.5275,-2.5315,-2.5323,-2.5301,-2.5371,-2.5349,-2.5354,-2.5363,-2.537,-2.5376,-2.5372,-2.528,0,0,0,0,0,-2.5172,-2.5194,-2.5206,-2.524,-2.5248,-2.5253,-2.5267,-2.5265,-2.5281,-2.5287,-2.5298,-2.5315,-2.5339,-2.5355,-2.5379,-2.5424,-2.5429,-2.5445,-2.5451,-2.5455,-2.546,-2.5486,-2.5493,-2.5411,-2.5411,-2.5411,0,0,-2.5192,-2.5202,-2.5216,-2.5245,-2.5256,-2.5281,-2.5259,-2.5286,-2.5305,-2.5292,-2.5328,-2.5337,-2.5356,-2.5398,-2.5417,-2.5407,-2.5484,-2.546,-2.5464,-2.5466,-2.549,-2.5498,-2.5505,-2.5414,-2.5413,-2.5413,0,0,-2.524,-2.525,-2.528,-2.5292,-2.531,-2.5313,-2.5321,-2.5337,-2.5341,-2.5378,-2.5369,-2.5393,-2.5435,-2.5449,-2.5461,-2.5518,-2.551,-2.5526,-2.5554,-2.558,-2.5586,-2.5592,-2.5612,-2.562,-2.5531,-2.5531,-2.5531,0,-2.5263,-2.5299,-2.5297,-2.5325,-2.5338,-2.5328,-2.5359,-2.5371,-2.5396,-2.5406,-2.5394,-2.5447,-2.5459,-2.5505,-2.5519,-2.553,-2.5539,-2.5523,-2.5585,-2.5591,-2.5596,-2.5616,-2.5623,-2.5532,-2.5532,-2.5532,-2.5532,0,-2.5326,-2.5352,-2.5374,-2.5397,-2.5413,-2.5443,-2.5447,-2.5464,-2.5462,-2.5467,-2.5505,-2.552,-2.5546,-2.5557,-2.5555,-2.5603,-2.5596,-2.5585,-2.5562,-2.5606,-2.5624,-2.5632,-2.5535,-2.5534,-2.5534,-2.5533,0,0,-2.5388,-2.5411,-2.5419,-2.543,-2.545,-2.547,-2.55,-2.5525,-2.554,-2.5558,-2.5584,-2.5621,-2.561,-2.5625,-2.5625,-2.5647,-2.5692,-2.5633,-2.5634,-2.5643,-2.5747,-2.5754,-2.5763,-2.5687,-2.5689,-2.569,-2.5745,0,-2.5438,-2.5489,-2.5489,-2.5537,-2.5561,-2.5552,-2.5579,-2.5594,-2.5601,-2.5624,-2.5631,-2.5657,-2.5642,-2.5651,-2.5672,-2.5682,-2.5712,-2.5678,-2.5712,-2.5713,-2.5706,-2.5773,-2.5781,-2.5832,-2.5752,-2.5753,-2.5754,0,-2.5503,-2.5522,-2.5572,-2.5589,-2.5599,-2.5622,-2.5646,-2.5667,-2.5686,-2.5689,-2.5706,-2.5703,-2.5736,-2.5714,-2.5759,-2.5735,-2.575,-2.5757,-2.5759,-2.5761,-2.5736,-2.5776,-2.5848,-2.5856,-2.5765,-2.5765,-2.5764,0,-2.5543,-2.5582,-2.5617,-2.5626,-2.5647,-2.5664,-2.5674,-2.5691,-2.5706,-2.5728,-2.5738,-2.5764,-2.5777,-2.5798,-2.5803,-2.5786,-2.5848,-2.5826,-2.5853,-2.5853,-2.5865,-2.5864,-2.5939,-2.5876,-2.5876,-2.5875,-2.5875,0,-2.5598,-2.5629,-2.5635,-2.5656,-2.5691,-2.5692,-2.5727,-2.5736,-2.5752,-2.5776,-2.5771,-2.5794,-2.5799,-2.5824,-2.5828,-2.5865,-2.5872,-2.5876,-2.5877,-2.5876,-2.5875,-2.5885,-2.5881,-2.5877,-2.5877,-2.5877,-2.5876,0,-2.5648,-2.5653,-2.5691,-2.5708,-2.5713,-2.5738,-2.5753,-2.5774,-2.5781,-2.5812,-2.5819,-2.583,-2.5859,-2.5866,-2.5901,-2.5904,-2.5948,-2.5945,-2.5941,-2.594,-2.5967,-2.5964,-2.605,-2.6062,-2.5991,-2.5991,-2.5992,0,-2.5682,-2.5706,-2.5725,-2.5741,-2.5751,-2.5776,-2.5791,-2.5795,-2.5811,-2.5835,-2.5854,-2.5882,-2.5905,-2.5952,-2.5964,-2.5991,-2.5989,-2.6017,-2.5993,-2.5992,-2.5989,-2.5987,-2.599,-2.6021,-2.6022,-2.6023,-2.6023,0,-2.5743,-2.5745,-2.5767,-2.5791,-2.5809,-2.5828,-2.5847,-2.586,-2.5866,-2.5886,-2.5914,-2.5932,-2.5968,-2.5996,-2.6023,-2.6035,-2.6031,-2.6031,-2.6039,-2.6038,-2.6034,-2.6036,-2.5953,-2.6029,-2.6028,-2.6028,-2.6028,-2.6027,-2.5786,-2.5807,-2.5824,-2.5849,-2.5863,-2.5881,-2.5902,-2.5911,-2.5935,-2.5963,-2.5964,-2.5996,-2.6016,-2.6052,-2.6066,-2.6092,-2.6083,-2.6094,-2.6097,-2.61,-2.6102,-2.6031,-2.6097,-2.6097,-2.6097,-2.6097,-2.6097,0,-2.5846,-2.5857,-2.588,-2.5906,-2.5926,-2.592,-2.594,-2.5958,-2.5986,-2.6004,-2.6027,-2.6061,-2.6089,-2.6104,-2.6132,-2.615,-2.6149,-2.6157,-2.6156,-2.6159,-2.6108,-2.6098,-2.6158,-2.6158,-2.6158,-2.6158,-2.6158,-2.6158,-2.5879,-2.5914,-2.5918,-2.5961,-2.5972,-2.6002,-2.6014,-2.6031,-2.6046,-2.6084,-2.6107,-2.6116,-2.6134,-2.6163,-2.619,-2.6193,-2.6204,-2.6213,-2.6216,-2.6168,-2.6162,-2.6156,-2.6147,-2.6216,-2.6216,-2.6265,-2.6265,-2.6265]},{"header":{"parameterUnit":"m.s-1","parameterCategory":1,"la1":30.2991,"la2":30.254,"lo1":-89.0895,"lo2":-89.0444,"dy":0.0017,"dx":0.0017,"nx":28,"ny":28,"refTime":"2024-02-07T03:00:00:Z","depth":0,"parameterNumber":3,"parameterNumberName":"V-component_of_WINDS"},"data":[0,0,0,0,0,0,0,0,0,0,0,0,0,0,0,0,0,0,0,0,0,0,0,0,0,0,0,0,0,0,0,0,0,0,0,0,0,0,0,0,0,0,0,0,0,0,0,0,0,0,0,0,0,0,0,0,0,0,1.7182,1.7182,0,1.7189,1.7189,1.7189,1.7178,1.7178,1.7178,1.7177,1.7184,1.7185,1.7185,0,0,0,0,0,0,0,0,0,0,0,0,0,1.7161,1.7161,1.7182,1.7182,1.7182,1.7189,1.7189,1.7189,1.7178,1.7178,1.7178,1.7177,1.7184,1.7185,1.7185,0,0,0,0,0,0,0,0,0,0,0,0,0,1.7169,1.7161,1.7182,1.7178,1.7177,1.7189,1.7189,1.7189,1.7179,1.7178,1.7177,1.7177,1.7184,1.7185,1.7186,1.7202,0,0,1.7188,1.7188,0,0,0,0,0,0,0,0,1.7169,1.717,1.7178,1.7178,1.7178,1.7182,1.7184,1.7193,1.7179,1.7178,1.7177,1.7177,1.7184,1.7185,1.7187,1.7202,1.7202,1.7188,1.7189,1.7189,1.7189,0,0,0,0,0,0,0,1.7168,1.717,1.7185,1.7178,1.7178,1.7176,1.7176,1.7186,1.7184,1.7178,1.7177,1.7178,1.7184,1.7187,1.7187,1.7202,1.7188,1.7189,1.7189,1.719,1.7233,1.7233,0,0,0,0,0,0,1.7168,1.7169,1.7184,1.7185,1.7172,1.7177,1.7177,1.7181,1.7184,1.7184,1.7179,1.7178,1.7186,1.7187,1.7188,1.7208,1.7189,1.719,1.719,1.7232,1.7233,1.7234,0,0,0,0,0,0,1.7168,1.7169,1.7184,1.7177,1.7179,1.7178,1.7182,1.7182,1.7184,1.7184,1.7184,1.7182,1.7185,1.7187,1.7199,1.7208,1.719,1.7191,1.7231,1.7232,1.7233,1.7248,0,0,0,0,0,0,1.7167,1.7169,1.7175,1.7177,1.7179,1.7195,1.7183,1.7182,1.7186,1.7185,1.7187,1.7187,1.7185,1.7198,1.72,1.7209,1.7191,1.723,1.7232,1.7233,1.7247,1.725,1.7252,0,0,0,0,0,1.7166,1.7178,1.7175,1.7177,1.7186,1.7195,1.7196,1.7193,1.7187,1.7193,1.7193,1.7187,1.7207,1.7199,1.7201,1.7211,1.723,1.7231,1.7233,1.7246,1.7249,1.7252,0,0,0,0,0,0,1.7177,1.7178,1.7175,1.7188,1.7192,1.7193,1.7201,1.7197,1.7202,1.7201,1.7197,1.7198,1.7211,1.7212,1.7203,1.7228,1.7217,1.7219,1.7227,1.723,1.7232,1.7232,1.7192,0,0,0,0,0,1.7181,1.7188,1.7189,1.72,1.7202,1.7201,1.7205,1.7203,1.7206,1.7208,1.7209,1.7213,1.722,1.7225,1.7231,1.7247,1.7249,1.7255,1.7258,1.726,1.7262,1.7272,1.7276,1.7239,1.7239,1.7239,0,0,1.7189,1.719,1.7195,1.7203,1.7205,1.7213,1.7203,1.7211,1.7218,1.7209,1.7221,1.7222,1.7226,1.7241,1.7248,1.7242,1.7272,1.7262,1.7263,1.7264,1.7274,1.7278,1.7281,1.724,1.7239,1.7239,0,0,1.7208,1.7209,1.722,1.7223,1.7227,1.7227,1.723,1.7232,1.7233,1.7245,1.724,1.7247,1.7259,1.7263,1.7267,1.729,1.7285,1.7292,1.7305,1.7315,1.7318,1.7321,1.7331,1.7334,1.7294,1.7294,1.7294,0,1.7217,1.7229,1.7226,1.7236,1.724,1.7233,1.7245,1.7248,1.7254,1.7257,1.7251,1.7268,1.727,1.7287,1.7292,1.7295,1.7299,1.7291,1.7318,1.7321,1.7323,1.7332,1.7336,1.7294,1.7294,1.7294,1.7294,0,1.7241,1.725,1.7258,1.7265,1.727,1.728,1.728,1.7285,1.7283,1.7284,1.7297,1.73,1.7308,1.7311,1.7308,1.7328,1.7325,1.7319,1.7308,1.7328,1.7336,1.734,1.7296,1.7295,1.7295,1.7295,0,0,1.7266,1.7272,1.7276,1.728,1.7285,1.7292,1.7303,1.7311,1.7317,1.7321,1.7331,1.7343,1.7338,1.7342,1.734,1.7349,1.7369,1.7341,1.7341,1.7347,1.7392,1.7398,1.7402,1.7366,1.7366,1.7367,1.7392,0,1.7286,1.7305,1.7303,1.7322,1.7331,1.7325,1.7335,1.734,1.7341,1.7349,1.7351,1.736,1.7351,1.7354,1.7363,1.7364,1.7378,1.7362,1.7376,1.7376,1.7376,1.7406,1.7411,1.7435,1.7396,1.7396,1.7396,0,1.7311,1.7318,1.7338,1.7344,1.7347,1.7356,1.7365,1.7372,1.7378,1.7379,1.7384,1.7381,1.7394,1.7383,1.74,1.739,1.7395,1.7397,1.7398,1.74,1.7388,1.7409,1.7442,1.7447,1.7401,1.7401,1.7401,0,1.7329,1.7343,1.7357,1.7361,1.7368,1.7374,1.7377,1.7383,1.7389,1.7396,1.74,1.7409,1.7414,1.7421,1.7421,1.7413,1.7439,1.7428,1.7441,1.7441,1.7447,1.7447,1.7483,1.7449,1.7449,1.7449,1.7449,0,1.7352,1.7365,1.7366,1.7374,1.7389,1.7388,1.7402,1.7405,1.741,1.742,1.7415,1.7425,1.7424,1.7433,1.7433,1.7449,1.7451,1.7452,1.7452,1.7453,1.7453,1.7457,1.7456,1.745,1.745,1.7449,1.7449,0,1.7375,1.7376,1.7391,1.7397,1.7399,1.7409,1.7414,1.7423,1.7425,1.7437,1.744,1.7443,1.7454,1.7455,1.7467,1.7468,1.7487,1.7485,1.7485,1.7485,1.7498,1.7498,1.7539,1.7545,1.7506,1.7507,1.7507,0,1.739,1.7399,1.7407,1.7413,1.7417,1.7427,1.7434,1.7433,1.744,1.7449,1.7457,1.7468,1.7477,1.7496,1.7499,1.7509,1.7508,1.7522,1.7509,1.7511,1.751,1.751,1.7511,1.7524,1.7525,1.7525,1.7525,0,1.7417,1.7417,1.7426,1.7437,1.7444,1.7452,1.7459,1.7465,1.7466,1.7474,1.7486,1.7493,1.7507,1.7519,1.7529,1.7533,1.753,1.7529,1.7533,1.7534,1.7535,1.7536,1.7493,1.7528,1.7528,1.7528,1.7527,1.7527,1.7436,1.7446,1.7453,1.7464,1.747,1.7477,1.7486,1.749,1.75,1.7512,1.7511,1.7525,1.7532,1.7546,1.7551,1.7562,1.7558,1.7563,1.7564,1.7566,1.7568,1.7533,1.7564,1.7564,1.7564,1.7564,1.7564,0,1.7464,1.7469,1.748,1.7491,1.75,1.7496,1.7505,1.7513,1.7525,1.7532,1.7542,1.7557,1.7569,1.7573,1.7585,1.7593,1.7592,1.7597,1.7597,1.7598,1.7571,1.7567,1.7598,1.7598,1.7598,1.7598,1.7598,1.7598,1.748,1.7496,1.7498,1.7517,1.7522,1.7536,1.7541,1.7549,1.7555,1.7572,1.7582,1.7585,1.7592,1.7605,1.7616,1.7617,1.7622,1.7628,1.7628,1.7603,1.7599,1.7596,1.7593,1.7628,1.7629,1.7655,1.7655,1.7655]}]]